www.pogodaiklimat.ru

Погода и климат >> Архив погоды >> Россия >> Ямало-Ненецкий АО >> Полуй


ПОГОДА в Полуе

  • Прогноз погоды в Полуе
  • Монитор погоды в Полуе
  • Климат города

АРХИВ ПОГОДЫ в Полуе

Время (UTC), дата Ветер
(напр.,м/с)
 
Видим.   Явления Облачность Т
(С)
Тd
(С)
f
(%)
Тe
(С)
Тes
(С)
Комфортность P
(гПа)
Po
(гПа)
Тmin
(С)
Tmax
(С)
R
(мм)
R24
(мм)
S
(см)
21 15.10 ЮЗ 5 20 км слабый снег 10/0 300 м
[As op]
-2.7 -4.1 90 -10 -10 1012.9 1008.4
00 16.10 Ю 6
{11}
н/о н/о -1.3 -3.4 86 -8 -8 1009.0 1004.6
03 16.10 Ю 6-11
{13}
4000 м слабый снег {метель} 10/0 300 м
[As op]
-1.7 -2.7 93 -9 -9 1004.6 1000.1 -2.7 2 6
06 16.10 Ю 7-13
{15}
2000 м снег {метель} 10/0 300 м
[As op]
-1.7 -2.9 91 -9 -9 1000.7 996.3
09 16.10 ЮЗ 5
{15}
4000 м слабый снег {метель} 10/0
[As op]
-0.7 -1.8 92 -7 -7 999.0 994.6
12 16.10 ЮЗ 4
{11}
н/о н/о +0.7 -0.4 92 -5 -5 997.9 993.6
15 16.10 З 5
{12}
50 км 3/0
[Ac As]
+0.5 -1.2 88 -6 -6 996.1 991.8 +0.9 4
18 16.10 ЮЗ 6-10
{14}
н/о н/о +0.2 -1.9 86 -6 -6 994.4 990.1
21 16.10 ЮЗ 4
{14}
50 км ясно +0.4 -1.7 86 -5 -5 993.3 989.0
00 17.10 З 5-10
{12}
н/о н/о +1.4 -1.2 83 -4 -4 992.1 987.7
03 17.10 З 3
{12}
50 км 8/4 600 м
[Sc Ac trans Cc]
+0.5 -1.8 85 -4 -4 991.8 987.5 +0.2 8
06 17.10 З 3 н/о н/о +0.4 -2.5 81 -4 -4 992.7 988.4
09 17.10 З 3 50 км 10/8 600 м
[Sc Ac trans Ci fib]
+2.1 -3.2 68 -2 -2 994.4 990.1
12 17.10 СЗ 2 н/о н/о +1.5 -3.4 70 -2 -2 997.2 992.9
15 17.10 С 3 20 км слабый ливневой снег 8/8 300 м
[Cb cap]
0.0 -1.7 88 -5 -5 999.7 995.4 +2.3 0.6
18 17.10 С 3 н/о н/о -0.3 -2.1 88 -5 -5 1002.7 998.3
21 17.10 С 4 50 км {ливн. осадки} 8/8 600 м
[Cb cap]
-0.6 -4.4 75 -6 -6 1005.3 1000.9
00 18.10 С 3 н/о н/о -0.9 -6.5 66 -5 -5 1007.4 1003.0
03 18.10 С 3 н/о н/о -0.7 -6.6 64 -5 -5 1009.3 1004.9
06 18.10 С 3 н/о н/о 0.0 -6.8 60 -4 -4 1010.8 1006.4
09 18.10 С 3 50 км 9/5 600 м
[Sc Ac trans]
+0.5 -6.6 59 -4 -3 1011.5 1007.0
12 18.10 СЗ 1 н/о н/о -0.9 -5.9 69 -3 -3 1012.0 1007.5
15 18.10 ЮЗ 1 50 км 9/5 600 м
[Sc Ac As]
-1.7 -5.6 75 -4 -4 1011.9 1007.5 +1.1
18 18.10 ЮЗ 1 н/о н/о -1.9 -5.4 77 -4 -4 1010.9 1006.4
21 18.10 Ю 1 50 км 10/10 600 м
[Sc]
-2.5 -5.1 82 -5 -5 1010.1 1005.7
00 19.10 Ю 1 н/о н/о -3.0 -5.3 84 -5 -5 1009.9 1005.4
03 19.10 ЮВ 1 50 км 10/0
[Ac und]
-3.1 -5.5 83 -5 -5 1009.4 1004.9 -3.2 9
06 19.10 Ю 1 н/о н/о -1.4 -5.0 76 -3 -3 1009.1 1004.7
09 19.10 ЮЗ 1 50 км 10/5 600 м
[Cb cap Ac As]
-0.4 -6.1 65 -2 -2 1008.8 1004.4
12 19.10 ЮВ 1 н/о н/о -1.4 -6.1 70 -3 -3 1008.5 1004.0
15 19.10 ЮВ 1 50 км 10/0
[Ac As]
-2.1 -6.9 70 -4 -4 1008.4 1004.0 -0.2
18 19.10 ЮВ 2 н/о н/о -2.2 -8.8 61 -6 -6 1007.7 1003.3
21 19.10 ЮВ 2 50 км 10/0
[Ac As]
-2.2 -8.6 61 -6 -6 1007.3 1002.9
00 20.10 В 2 н/о н/о -3.5 -8.3 69 -7 -7 1006.6 1002.1
03 20.10 В 2 50 км 10/5 600 м
[Sc Ac As]
-4.1 -7.8 75 -8 -8 1006.8 1002.3 -4.2 9
06 20.10 В 2 н/о н/о -4.3 -7.7 77 -8 -8 1007.0 1002.6
09 20.10 В 3 50 км 10/3 300 м
[St Ac As Ci fib]
-2.8 -7.4 71 -8 -8 1007.4 1002.9
12 20.10 СВ 2 н/о н/о -5.0 -7.5 83 -9 -9 1008.4 1003.9
15 20.10 СВ 2 50 км 10/6 600 м
[Sc Ac As]
-3.6 -6.2 82 -8 -8 1009.2 1004.7 -2.5
18 20.10 С 2 н/о н/о -4.6 -8.2 76 -9 -9 1009.4 1004.9
21 20.10 С 1 50 км 3/0
[Ac lent]
-8.9 -10.3 90 -11 -11 1009.7 1005.1
00 21.10 СВ 3 н/о н/о -6.0 -8.2 84 -12 -12 1010.2 1005.7
03 21.10 СВ 3 50 км 10/5 300 м
[St Ac As]
-6.3 -8.7 83 -12 -12 1011.1 1006.6 -9.2 9
06 21.10 С 3 н/о н/о -4.4 -7.9 77 -10 -10 1011.5 1007.0
09 21.10 С 2 50 км 3/0
[Ac trans Ci fib]
-1.9 -7.0 68 -5 -5 1012.3 1007.8
12 21.10 С 2 н/о н/о -5.7 -7.9 84 -10 -10 1013.6 1009.1
15 21.10 С 2 н/о н/о -5.7 -7.9 84 -10 -10 1013.6 1009.1
18 21.10 штиль 0 н/о н/о -5.6 -7.0 90 -7 -7 1013.8 1009.3
21 21.10 штиль 0 50 км 10/10 600 м
[Sc]
-5.8 -7.1 91 -7 -7 1013.4 1008.9
00 22.10 Ю 1 н/о н/о -5.4 -6.6 91 -8 -8 1012.5 1008.0
03 22.10 Ю 1 50 км в посл. час снег 9/6 600 м
[Sc Ac As]
-5.3 -6.5 91 -8 -8 1011.6 1007.1 -5.9 0.2 9
06 22.10 Ю 1 н/о н/о -3.8 -7.4 76 -6 -6 1010.6 1006.1
09 22.10 Ю 2 50 км 3/0
[Ac trans]
-2.2 -7.7 66 -6 -5 1009.0 1004.6
12 22.10 ЮВ 2 н/о н/о -4.8 -8.5 75 -9 -9 1006.9 1002.4

 

Местоположение метеостанции Полуй (Ямало-Ненецкий АО, Россия): широта 66.03 долгота 68.68 высота над уровнем моря 36 м.

В архиве по умолчанию представлена погода в Полуе за последнюю неделю. Архивные данные за месяц целиком и за предыдущие месяцы, начиная с января 2011 года, Вы можете получить, выбрав интересующий диапазон дат из раскрывающегося списка и нажав кнопку "Ввод!".


*Определитесь, кто Вы:
робот инопланетянин человек

Внимание! Время в таблицах - всемирное. Для получения местного времени необходимо прибавить поправку, которая в Полуе равна 5 ч.

Смотрите также архив погоды в соседних городах и на ближайших метеорологических станциях:

Погода в Белоярске (Ямало-Ненецкий АО, Россия) (97 км)
Погода в Салехарде (Ямало-Ненецкий АО, Россия) (106 км)
Погода в Питляре (Ямало-Ненецкий АО, Россия) (127 км)
Погода в Харпе (Ямало-Ненецкий АО, Россия) (155 км)
Погода в Лонг-Югане (Ямало-Ненецкий АО, Россия) (175 км)
Погода в Надыме (Ямало-Ненецкий АО, Россия) (193 км)
Погода в Мужах (Ямало-Ненецкий АО, Россия) (195 км)
Погода в Ныде (Ямало-Ненецкий АО, Россия) (201 км)
Погода в Елецкой (Коми, Россия) (233 км)
Погода в Новом Порте (Ямало-Ненецкий АО, Россия) (260 км)

Пояснения к столбцам:

Ветер - указаны скорость ветра в м/с - средняя за 10 мин, порывы в срок и между сроками (в фигурных скобках) и направление, откуда дует ветер: С - северный, СВ - северо-восточный, В - восточный, ЮВ - юго-восточный, Ю - южный, ЮЗ - юго-западный, З - западный, СЗ - северо-западный.
Видимость - горизонтальная дальность видимости в метрах или километрах. При видимости от 1 до 10 км при отсутствии осадков обычно наблюдается дымка, при ухудшении видимости до 1 км и менее - туман. В сухую погоду видимость может ухудшаться дымом, пылью или мглою.
Явления - указаны атмосферные явления, наблюдавшиеся в срок или в последний час перед сроком; фигурными скобками обозначены явления, наблюдавшиеся между сроками (за 1-3 часа до срока); квадратными скобками обозначены град или гололедные отложения с указанием их диаметра в мм.
Облачность - указаны через наклонную черту общая и нижняя облачность в баллах и высота нижней границы облаков в метрах; квадратными скобками обозначены формы облаков: Ci - перистые, Cs - перисто-слоистые, Cc - перисто-кучевые, Ac - высококучевые, As - высокослоистые, Sc - слоисто-кучевые, Ns - слоисто-дождевые, Cu - кучевые, Cb - кучево-дождевые. Подробнее классификацию облаков см. в Атласе облаков (PDF).
T - Температура воздуха - температура, измеренная на высоте 2 м над землей.
Td - Температура точки росы - температура, при понижении до которой содержащийся в воздухе водяной пар достигнет насыщения.
f - Относительная влажность воздуха - влажноcть воздуха, измеренная на высоте 2 м над землей.
Te - Эффективная температура - температура, которую ощущает одетый по сезону человек в тени. Характеристика душности погоды. При расчете учитывается влияние влажности воздуха и скорости ветра на теплоощущения человека.
Tes - Эффективная температура на солнце - температура, которую ощущает человек, с поправкой на солнечный нагрев. Характеристика знойности погоды. Зависит от высоты солнца над горизонтом, облачности и скорости ветра. Ночью, в пасмурную погоду, а также при ветре 12 м/с и более поправка равна нулю.
P - Атмосферное давление - приведенное к уровню моря атмосферное давление.
Po - Атмосферное давление - измеренное на уровне метеостанции атмосферное давление.
Tmin - Минимальная температура - минимум температуры воздуха на высоте 2 м над землей.
Tmax - Максимальная температура - максимум температуры воздуха на высоте 2 м над землей.
R - Количество осадков - Количество выпавших осадков за период времени, мм. При наведении курсора мыши на число - период времени, за который выпало указанное количество осадков.
R24 - Количество осадков - Количество выпавших осадков за 24 часа, мм.
S - Снежный покров - Высота снежного покрова, см. При наведении курсора мыши на число - состояние снежного покрова и степень покрытия местности в баллах.